| time (UTC) | temp C | wind direction | speed KPH | gust KPH | rain 1hr cm | rain 24hr cm | rain mn cm | humidity % | barometer mb |
| 20260902142028 | 27 | 181 | 9.7 | 17.7 | 0.00 | 0.00 | 0.00 | 50 | 1013.6 |
| 20260902141526 | 27 | 177 | 11.3 | 17.7 | 0.00 | 0.00 | 0.00 | 49 | 1013.7 |
| 20260902141025 | 27 | 168 | 9.7 | 16.1 | 0.00 | 0.00 | 0.00 | 50 | 1013.7 |
| 20260902140526 | 27 | 195 | 9.7 | 16.1 | 0.00 | 0.00 | 0.00 | 50 | 1013.7 |
| 20260902140026 | 27 | 197 | 6.4 | 16.1 | 0.00 | 0.00 | 0.00 | 50 | 1013.6 |
| 20260902135524 | 27 | 167 | 6.4 | 12.9 | 0.00 | 0.00 | 0.00 | 49 | 1013.7 |
| 20260902135024 | 26 | 179 | 3.2 | 9.7 | 0.00 | 0.00 | 0.00 | 49 | 1013.5 |
| 20260902134523 | 26 | 169 | 3.2 | 9.7 | 0.00 | 0.00 | 0.00 | 49 | 1013.5 |
| 20260902134024 | 26 | 168 | 3.2 | 9.7 | 0.00 | 0.00 | 0.00 | 49 | 1013.5 |
| 20260902133522 | 26 | 166 | 3.2 | 4.8 | 0.00 | 0.00 | 0.00 | 48 | 1013.4 |
| 20260902132525 | 25 | 165 | 3.2 | 4.8 | 0.00 | 0.00 | 0.00 | 48 | 1013.4 |
| 20260902132020 | 25 | 165 | 3.2 | 4.8 | 0.00 | 0.00 | 0.00 | 48 | 1013.3 |
| 20260902131520 | 25 | 165 | 1.6 | 4.8 | 0.00 | 0.00 | 0.00 | 48 | 1013.4 |
| 20260902131019 | 25 | 165 | 3.2 | 6.4 | 0.00 | 0.00 | 0.00 | 48 | 1013.4 |
| 20260902130519 | 25 | 165 | 3.2 | 6.4 | 0.00 | 0.00 | 0.00 | 49 | 1013.4 |
| 20260902130018 | 25 | 165 | 3.2 | 8.0 | 0.00 | 0.00 | 0.00 | 49 | 1013.2 |
| 20260902125517 | 25 | 164 | 3.2 | 8.0 | 0.00 | 0.00 | 0.00 | 48 | 1013.2 |
| 20260902125017 | 25 | 164 | 1.6 | 4.8 | 0.00 | 0.00 | 0.00 | 48 | 1013.2 |
| 20260902124516 | 25 | 165 | 1.6 | 4.8 | 0.00 | 0.00 | 0.00 | 47 | 1013.1 |
| 20260902124018 | 25 | 165 | 1.6 | 4.8 | 0.00 | 0.00 | 0.00 | 47 | 1013.0 |
| 20260902123515 | 25 | 165 | 1.6 | 4.8 | 0.00 | 0.00 | 0.00 | 47 | 1013.1 |
| 20260902122515 | 25 | 165 | 1.6 | 6.4 | 0.00 | 0.00 | 0.00 | 46 | 1013.0 |
| 20260902122017 | 25 | 165 | 1.6 | 6.4 | 0.00 | 0.00 | 0.00 | 46 | 1013.0 |
| 20260902121513 | 25 | 165 | 1.6 | 4.8 | 0.00 | 0.00 | 0.00 | 45 | 1012.9 |
| 20260902121013 | 25 | 165 | 1.6 | 4.8 | 0.00 | 0.00 | 0.00 | 45 | 1012.9 |
| 20260902120513 | 25 | 165 | 1.6 | 6.4 | 0.00 | 0.00 | 0.00 | 44 | 1013.0 |
| 20260902120012 | 25 | 165 | 3.2 | 6.4 | 0.00 | 0.00 | 0.00 | 44 | 1012.9 |
| 20260902115511 | 25 | 164 | 1.6 | 6.4 | 0.00 | 0.00 | 0.00 | 44 | 1012.8 |
| 20260902115011 | 25 | 165 | 3.2 | 6.4 | 0.00 | 0.00 | 0.00 | 44 | 1012.8 |
| 20260902114510 | 25 | 164 | 3.2 | 6.4 | 0.00 | 0.00 | 0.00 | 44 | 1012.8 |
| 20260902114011 | 25 | 164 | 3.2 | 6.4 | 0.00 | 0.00 | 0.00 | 44 | 1012.7 |
| 20260902113509 | 25 | 164 | 3.2 | 6.4 | 0.00 | 0.00 | 0.00 | 44 | 1012.8 |
| 20260902112509 | 25 | 164 | 1.6 | 4.8 | 0.00 | 0.00 | 0.00 | 43 | 1012.7 |
| 20260902112007 | 25 | 164 | 1.6 | 4.8 | 0.00 | 0.00 | 0.00 | 42 | 1012.7 |
| 20260902111505 | 25 | 164 | 1.6 | 6.4 | 0.00 | 0.00 | 0.00 | 42 | 1012.8 |
| 20260902111004 | 25 | 164 | 3.2 | 8.0 | 0.00 | 0.00 | 0.00 | 42 | 1012.7 |
| 20260902110506 | 25 | 163 | 3.2 | 8.0 | 0.00 | 0.00 | 0.00 | 42 | 1012.8 |
| 20260902110012 | 25 | 162 | 3.2 | 6.4 | 0.00 | 0.00 | 0.00 | 42 | 1012.7 |
| 20260902105505 | 25 | 162 | 1.6 | 4.8 | 0.00 | 0.00 | 0.00 | 41 | 1012.8 |
| 20260902105003 | 25 | 162 | 1.6 | 4.8 | 0.00 | 0.00 | 0.00 | 41 | 1012.7 |
| 20260902104507 | 25 | 162 | 1.6 | 6.4 | 0.00 | 0.00 | 0.00 | 41 | 1012.7 |
| 20260902104002 | 25 | 162 | 3.2 | 6.4 | 0.00 | 0.00 | 0.00 | 41 | 1012.8 |
| 20260902103501 | 25 | 162 | 1.6 | 6.4 | 0.00 | 0.00 | 0.00 | 41 | 1012.7 |
| 20260902102600 | 25 | 161 | 1.6 | 4.8 | 0.00 | 0.00 | 0.00 | 41 | 1012.8 |
| 20260902102100 | 26 | 161 | 1.6 | 6.4 | 0.00 | 0.00 | 0.00 | 41 | 1012.7 |
| 20260902101608 | 26 | 162 | 3.2 | 6.4 | 0.00 | 0.00 | 0.00 | 41 | 1012.8 |
| 20260902101100 | 26 | 161 | 3.2 | 6.4 | 0.00 | 0.00 | 0.00 | 40 | 1012.8 |
| 20260902100559 | 26 | 162 | 3.2 | 6.4 | 0.00 | 0.00 | 0.00 | 40 | 1012.7 |
| 20260902100059 | 26 | 161 | 1.6 | 6.4 | 0.00 | 0.00 | 0.00 | 40 | 1012.8 |
| 20260902095559 | 26 | 161 | 1.6 | 4.8 | 0.00 | 0.00 | 0.00 | 40 | 1012.8 |
| 20260902095059 | 26 | 161 | 3.2 | 6.4 | 0.00 | 0.00 | 0.00 | 40 | 1012.8 |
| 20260902094558 | 26 | 160 | 3.2 | 8.0 | 0.00 | 0.00 | 0.00 | 40 | 1012.7 |
| 20260902094058 | 26 | 159 | 1.6 | 8.0 | 0.00 | 0.00 | 0.00 | 40 | 1012.7 |
| 20260902093556 | 26 | 158 | 4.8 | 8.0 | 0.00 | 0.00 | 0.00 | 40 | 1012.7 |
| 20260902092600 | 26 | 169 | 4.8 | 8.0 | 0.00 | 0.00 | 0.00 | 40 | 1012.7 |
| 20260902092058 | 26 | 169 | 3.2 | 6.4 | 0.00 | 0.00 | 0.00 | 40 | 1012.7 |
| 20260902091557 | 26 | 171 | 3.2 | 6.4 | 0.00 | 0.00 | 0.00 | 39 | 1012.6 |
| 20260902091055 | 26 | 171 | 1.6 | 6.4 | 0.00 | 0.00 | 0.00 | 39 | 1012.6 |
| 20260902090554 | 26 | 171 | 3.2 | 6.4 | 0.00 | 0.00 | 0.00 | 39 | 1012.6 |
| 20260902090055 | 26 | 171 | 3.2 | 6.4 | 0.00 | 0.00 | 0.00 | 39 | 1012.7 |
| 20260902085553 | 26 | 175 | 3.2 | 6.4 | 0.00 | 0.00 | 0.00 | 39 | 1012.7 |
| 20260902085053 | 26 | 175 | 3.2 | 6.4 | 0.00 | 0.00 | 0.00 | 39 | 1012.6 |
| 20260902084557 | 26 | 176 | 1.6 | 6.4 | 0.00 | 0.00 | 0.00 | 39 | 1012.6 |
| 20260902084055 | 26 | 176 | 1.6 | 6.4 | 0.00 | 0.00 | 0.00 | 39 | 1012.6 |
| 20260902083557 | 26 | 176 | 3.2 | 6.4 | 0.00 | 0.00 | 0.00 | 39 | 1012.7 |
| 20260902082552 | 27 | 176 | 1.6 | 4.8 | 0.00 | 0.00 | 0.00 | 39 | 1012.7 |
| 20260902082051 | 27 | 176 | 1.6 | 6.4 | 0.00 | 0.00 | 0.00 | 39 | 1012.7 |
| 20260902081551 | 27 | 176 | 1.6 | 6.4 | 0.00 | 0.00 | 0.00 | 39 | 1012.7 |
| 20260902081051 | 27 | 176 | 3.2 | 6.4 | 0.00 | 0.00 | 0.00 | 38 | 1012.7 |
| 20260902080549 | 27 | 176 | 3.2 | 6.4 | 0.00 | 0.00 | 0.00 | 38 | 1012.6 |
| 20260902080049 | 27 | 176 | 1.6 | 6.4 | 0.00 | 0.00 | 0.00 | 38 | 1012.7 |
| 20260902075547 | 27 | 176 | 1.6 | 4.8 | 0.00 | 0.00 | 0.00 | 38 | 1012.7 |
| 20260902075047 | 27 | 176 | 3.2 | 4.8 | 0.00 | 0.00 | 0.00 | 37 | 1012.7 |
| 20260902074546 | 27 | 176 | 1.6 | 4.8 | 0.00 | 0.00 | 0.00 | 37 | 1012.7 |
| 20260902074045 | 27 | 176 | 1.6 | 8.0 | 0.00 | 0.00 | 0.00 | 37 | 1012.7 |
| 20260902073547 | 28 | 176 | 3.2 | 8.0 | 0.00 | 0.00 | 0.00 | 37 | 1012.6 |
| 20260902072546 | 28 | 179 | 3.2 | 6.4 | 0.00 | 0.00 | 0.00 | 37 | 1012.6 |
| 20260902072046 | 28 | 179 | 3.2 | 6.4 | 0.00 | 0.00 | 0.00 | 37 | 1012.7 |
| 20260902071544 | 28 | 179 | 3.2 | 6.4 | 0.00 | 0.00 | 0.00 | 36 | 1012.6 |
| 20260902071043 | 28 | 179 | 1.6 | 4.8 | 0.00 | 0.00 | 0.00 | 36 | 1012.7 |
| 20260902070542 | 28 | 179 | 3.2 | 6.4 | 0.00 | 0.00 | 0.00 | 36 | 1012.7 |
| 20260902070044 | 28 | 179 | 3.2 | 6.4 | 0.00 | 0.00 | 0.00 | 36 | 1012.7 |
| 20260902065546 | 28 | 179 | 3.2 | 6.4 | 0.00 | 0.00 | 0.00 | 36 | 1012.6 |
| 20260902065042 | 28 | 181 | 3.2 | 6.4 | 0.00 | 0.00 | 0.00 | 36 | 1012.5 |
| 20260902064543 | 28 | 181 | 3.2 | 6.4 | 0.00 | 0.00 | 0.00 | 36 | 1012.5 |
| 20260902064042 | 28 | 181 | 3.2 | 6.4 | 0.00 | 0.00 | 0.00 | 36 | 1012.4 |
| 20260902063542 | 28 | 181 | 1.6 | 6.4 | 0.00 | 0.00 | 0.00 | 36 | 1012.4 |
| 20260902062541 | 28 | 183 | 1.6 | 4.8 | 0.00 | 0.00 | 0.00 | 35 | 1012.4 |
| 20260902062039 | 28 | 183 | 3.2 | 8.0 | 0.00 | 0.00 | 0.00 | 35 | 1012.4 |
| 20260902061600 | 28 | 183 | 1.6 | 6.4 | 0.00 | 0.00 | 0.00 | 35 | 1012.4 |
| 20260902061048 | 28 | 183 | 3.2 | 6.4 | 0.00 | 0.00 | 0.00 | 35 | 1012.3 |
| 20260902060538 | 28 | 183 | 3.2 | 8.0 | 0.00 | 0.00 | 0.00 | 34 | 1012.4 |
| 20260902060042 | 28 | 184 | 1.6 | 8.0 | 0.00 | 0.00 | 0.00 | 34 | 1012.4 |
| 20260902055538 | 29 | 184 | 3.2 | 9.7 | 0.00 | 0.00 | 0.00 | 34 | 1012.4 |
| 20260902055037 | 29 | 191 | 3.2 | 12.9 | 0.00 | 0.00 | 0.00 | 34 | 1012.3 |
| 20260902054537 | 29 | 190 | 4.8 | 12.9 | 0.00 | 0.00 | 0.00 | 34 | 1012.3 |
| 20260902054036 | 29 | 179 | 8.0 | 11.3 | 0.00 | 0.00 | 0.00 | 34 | 1012.2 |
| 20260902053536 | 29 | 192 | 6.4 | 12.9 | 0.00 | 0.00 | 0.00 | 33 | 1012.2 |
| 20260902052534 | 29 | 195 | 3.2 | 8.0 | 0.00 | 0.00 | 0.00 | 33 | 1012.4 |
| 20260902052033 | 29 | 196 | 3.2 | 8.0 | 0.00 | 0.00 | 0.00 | 33 | 1012.5 |
| 20260902051550 | 29 | 196 | 6.4 | 8.0 | 0.00 | 0.00 | 0.00 | 33 | 1012.5 |
| 20260902051032 | 29 | 167 | 3.2 | 8.0 | 0.00 | 0.00 | 0.00 | 33 | 1012.6 |
| 20260902050531 | 29 | 167 | 1.6 | 6.4 | 0.00 | 0.00 | 0.00 | 33 | 1012.6 |
| 20260902050033 | 29 | 166 | 1.6 | 8.0 | 0.00 | 0.00 | 0.00 | 33 | 1012.6 |
| 20260902045530 | 29 | 166 | 3.2 | 8.0 | 0.00 | 0.00 | 0.00 | 32 | 1012.5 |
| 20260902045029 | 30 | 181 | 1.6 | 4.8 | 0.00 | 0.00 | 0.00 | 32 | 1012.5 |
| 20260902044558 | 30 | 181 | 3.2 | 8.0 | 0.00 | 0.00 | 0.00 | 32 | 1012.6 |
| 20260902044032 | 30 | 181 | 4.8 | 8.0 | 0.00 | 0.00 | 0.00 | 31 | 1012.6 |
| 20260902043528 | 30 | 181 | 3.2 | 8.0 | 0.00 | 0.00 | 0.00 | 31 | 1012.6 |
| 20260902042529 | 30 | 159 | 3.2 | 8.0 | 0.00 | 0.00 | 0.00 | 31 | 1012.6 |
| 20260902042029 | 30 | 157 | 3.2 | 4.8 | 0.00 | 0.00 | 0.00 | 31 | 1012.5 |
| 20260902041534 | 30 | 157 | 3.2 | 6.4 | 0.00 | 0.00 | 0.00 | 30 | 1012.5 |
| 20260902041028 | 30 | 157 | 3.2 | 6.4 | 0.00 | 0.00 | 0.00 | 30 | 1012.6 |
| 20260902040528 | 30 | 156 | 3.2 | 6.4 | 0.00 | 0.00 | 0.00 | 30 | 1012.4 |
| 20260902040029 | 30 | 195 | 3.2 | 6.4 | 0.00 | 0.00 | 0.00 | 30 | 1012.5 |
| 20260902035529 | 30 | 195 | 3.2 | 6.4 | 0.00 | 0.00 | 0.00 | 30 | 1012.4 |
| 20260902035032 | 31 | 196 | 3.2 | 8.0 | 0.00 | 0.00 | 0.00 | 29 | 1012.4 |
| 20260902034528 | 31 | 196 | 3.2 | 9.7 | 0.00 | 0.00 | 0.00 | 29 | 1012.3 |
| 20260902034028 | 31 | 191 | 3.2 | 14.5 | 0.00 | 0.00 | 0.00 | 29 | 1012.3 |
| 20260902033527 | 31 | 181 | 4.8 | 9.7 | 0.00 | 0.00 | 0.00 | 29 | 1012.3 |
| 20260902032529 | 31 | 186 | 3.2 | 8.0 | 0.00 | 0.00 | 0.00 | 28 | 1012.1 |
| 20260902032025 | 31 | 153 | 3.2 | 8.0 | 0.00 | 0.00 | 0.00 | 28 | 1012.0 |
| 20260902031542 | 31 | 160 | 3.2 | 8.0 | 0.00 | 0.00 | 0.00 | 28 | 1011.9 |
| 20260902031025 | 31 | 158 | 3.2 | 8.0 | 0.00 | 0.00 | 0.00 | 28 | 1011.8 |
| 20260902030527 | 31 | 162 | 3.2 | 8.0 | 0.00 | 0.00 | 0.00 | 28 | 1011.7 |
| 20260902030025 | 31 | 178 | 3.2 | 6.4 | 0.00 | 0.00 | 0.00 | 27 | 1011.6 |
| 20260902025526 | 31 | 179 | 3.2 | 8.0 | 0.00 | 0.00 | 0.00 | 27 | 1011.5 |
| 20260902025025 | 31 | 179 | 3.2 | 8.0 | 0.00 | 0.00 | 0.00 | 26 | 1011.4 |
| 20260902024524 | 31 | 178 | 3.2 | 6.4 | 0.00 | 0.00 | 0.00 | 26 | 1011.1 |
| 20260902024023 | 32 | 179 | 3.2 | 6.4 | 0.00 | 0.00 | 0.00 | 26 | 1011.1 |
| 20260902023524 | 32 | 183 | 3.2 | 9.7 | 0.00 | 0.00 | 0.00 | 26 | 1011.0 |
| 20260902023029 | 32 | 183 | 4.8 | 9.7 | 0.00 | 0.00 | 0.00 | 26 | 1011.0 |
| 20260902022524 | 32 | 191 | 3.2 | 6.4 | 0.00 | 0.00 | 0.00 | 25 | 1010.8 |
| 20260902022024 | 32 | 191 | 3.2 | 6.4 | 0.00 | 0.00 | 0.00 | 25 | 1010.7 |
| 20260902021524 | 32 | 191 | 3.2 | 6.4 | 0.00 | 0.00 | 0.00 | 25 | 1010.6 |
| 20260902021026 | 32 | 191 | 3.2 | 4.8 | 0.00 | 0.00 | 0.00 | 25 | 1010.5 |
| 20260902020523 | 32 | 191 | 3.2 | 6.4 | 0.00 | 0.00 | 0.00 | 25 | 1010.3 |
| 20260902015521 | 33 | 191 | 3.2 | 6.4 | 0.00 | 0.00 | 0.00 | 24 | 1010.2 |
| 20260902015021 | 33 | 191 | 3.2 | 8.0 | 0.00 | 0.00 | 0.00 | 24 | 1010.3 |
| 20260902014521 | 33 | 191 | 4.8 | 8.0 | 0.00 | 0.00 | 0.00 | 23 | 1010.1 |
| 20260902014020 | 33 | 191 | 4.8 | 9.7 | 0.00 | 0.00 | 0.00 | 23 | 1010.0 |
| 20260902013522 | 33 | 187 | 4.8 | 9.7 | 0.00 | 0.00 | 0.00 | 23 | 1010.0 |
| 20260902013023 | 33 | 180 | 4.8 | 9.7 | 0.00 | 0.00 | 0.00 | 22 | 1009.9 |
| 20260902012521 | 34 | 152 | 4.8 | 9.7 | 0.00 | 0.00 | 0.00 | 22 | 1009.8 |
| 20260902012020 | 34 | 187 | 4.8 | 16.1 | 0.00 | 0.00 | 0.00 | 22 | 1009.8 |
| 20260902011528 | 34 | 194 | 8.0 | 16.1 | 0.00 | 0.00 | 0.00 | 22 | 1009.7 |
| 20260902011021 | 34 | 193 | 6.4 | 19.3 | 0.00 | 0.00 | 0.00 | 21 | 1009.8 |
| 20260902010520 | 35 | 188 | 11.3 | 19.3 | 0.00 | 0.00 | 0.00 | 21 | 1009.8 |
| 20260902010020 | 35 | 196 | 9.7 | 19.3 | 0.00 | 0.00 | 0.00 | 21 | 1009.8 |
| 20260902005519 | 35 | 175 | 11.3 | 17.7 | 0.00 | 0.00 | 0.00 | 21 | 1009.7 |
| 20260902005022 | 35 | 218 | 12.9 | 17.7 | 0.00 | 0.00 | 0.00 | 21 | 1009.7 |
| 20260902004520 | 35 | 213 | 9.7 | 16.1 | 0.00 | 0.00 | 0.00 | 21 | 1009.7 |
| 20260902004018 | 35 | 200 | 6.4 | 20.9 | 0.00 | 0.00 | 0.00 | 21 | 1009.7 |
| 20260902003519 | 35 | 227 | 12.9 | 20.9 | 0.00 | 0.00 | 0.00 | 20 | 1009.7 |
| 20260902002523 | 35 | 181 | 9.7 | 20.9 | 0.00 | 0.00 | 0.00 | 20 | 1009.6 |
| 20260902002018 | 35 | 206 | 11.3 | 20.9 | 0.00 | 0.00 | 0.00 | 20 | 1009.5 |
| 20260902001519 | 35 | 191 | 9.7 | 20.9 | 0.00 | 0.00 | 0.00 | 20 | 1009.5 |
| 20260902001018 | 36 | 206 | 12.9 | 19.3 | 0.00 | 0.00 | 0.00 | 20 | 1009.6 |
| 20260902000518 | 36 | 197 | 9.7 | 17.7 | 0.00 | 0.00 | 0.00 | 20 | 1009.5 |
| 20260902000018 | 36 | 200 | 11.3 | 17.7 | 0.00 | 0.00 | 0.00 | 20 | 1009.4 |
| 20260901235518 | 36 | 206 | 6.4 | 17.7 | 0.00 | 0.00 | 0.00 | 19 | 1009.4 |
| 20260901235020 | 36 | 196 | 9.7 | 20.9 | 0.00 | 0.00 | 0.00 | 20 | 1009.4 |
| 20260901234517 | 36 | 211 | 8.0 | 20.9 | 0.00 | 0.00 | 0.00 | 20 | 1009.5 |
| 20260901234018 | 36 | 200 | 11.3 | 19.3 | 0.00 | 0.00 | 0.00 | 20 | 1009.5 |
| 20260901233518 | 36 | 220 | 11.3 | 19.3 | 0.00 | 0.00 | 0.00 | 20 | 1009.6 |
| 20260901232518 | 36 | 162 | 9.7 | 16.1 | 0.00 | 0.00 | 0.00 | 20 | 1009.6 |
| 20260901232019 | 35 | 194 | 8.0 | 16.1 | 0.00 | 0.00 | 0.00 | 20 | 1009.6 |
| 20260901231525 | 35 | 181 | 4.8 | 16.1 | 0.00 | 0.00 | 0.00 | 20 | 1009.5 |
| 20260901231017 | 36 | 177 | 9.7 | 16.1 | 0.00 | 0.00 | 0.00 | 20 | 1009.6 |
| 20260901230518 | 36 | 146 | 6.4 | 19.3 | 0.00 | 0.00 | 0.00 | 20 | 1009.5 |
| 20260901230020 | 36 | 185 | 9.7 | 19.3 | 0.00 | 0.00 | 0.00 | 20 | 1009.5 |
| 20260901225519 | 36 | 137 | 12.9 | 24.1 | 0.00 | 0.00 | 0.00 | 20 | 1009.6 |
| 20260901225018 | 36 | 192 | 12.9 | 24.1 | 0.00 | 0.00 | 0.00 | 20 | 1009.5 |
| 20260901224517 | 36 | 110 | 12.9 | 22.5 | 0.00 | 0.00 | 0.00 | 20 | 1009.4 |
| 20260901224021 | 36 | 168 | 11.3 | 25.7 | 0.00 | 0.00 | 0.00 | 20 | 1009.5 |
| 20260901223517 | 36 | 144 | 9.7 | 20.9 | 0.00 | 0.00 | 0.00 | 20 | 1009.6 |
| 20260901222519 | 36 | 154 | 9.7 | 22.5 | 0.00 | 0.00 | 0.00 | 19 | 1009.3 |
| 20260901222022 | 36 | 158 | 12.9 | 22.5 | 0.00 | 0.00 | 0.00 | 19 | 1009.4 |
| 20260901221517 | 36 | 209 | 9.7 | 19.3 | 0.00 | 0.00 | 0.00 | 19 | 1009.6 |
| 20260901221018 | 36 | 168 | 11.3 | 20.9 | 0.00 | 0.00 | 0.00 | 19 | 1009.8 |
| 20260901220516 | 36 | 193 | 11.3 | 20.9 | 0.00 | 0.00 | 0.00 | 19 | 1009.7 |
| 20260901220016 | 36 | 133 | 6.4 | 20.9 | 0.00 | 0.00 | 0.00 | 19 | 1009.7 |
| 20260901215515 | 36 | 179 | 8.0 | 20.9 | 0.00 | 0.00 | 0.00 | 19 | 1009.8 |
| 20260901215015 | 36 | 192 | 12.9 | 17.7 | 0.00 | 0.00 | 0.00 | 19 | 1009.8 |
| 20260901214514 | 36 | 193 | 11.3 | 17.7 | 0.00 | 0.00 | 0.00 | 20 | 1009.8 |
| 20260901214014 | 36 | 206 | 11.3 | 22.5 | 0.00 | 0.00 | 0.00 | 20 | 1009.8 |
| 20260901213515 | 36 | 148 | 8.0 | 22.5 | 0.00 | 0.00 | 0.00 | 19 | 1009.9 |
| 20260901212511 | 36 | 158 | 9.7 | 19.3 | 0.00 | 0.00 | 0.00 | 20 | 1010.1 |
| 20260901212012 | 36 | 183 | 9.7 | 19.3 | 0.00 | 0.00 | 0.00 | 20 | 1010.1 |
| 20260901211513 | 36 | 277 | 9.7 | 22.5 | 0.00 | 0.00 | 0.00 | 19 | 1010.2 |
| 20260901211010 | 36 | 255 | 3.2 | 22.5 | 0.00 | 0.00 | 0.00 | 19 | 1010.3 |
| 20260901210508 | 36 | 189 | 9.7 | 22.5 | 0.00 | 0.00 | 0.00 | 20 | 1010.6 |
| 20260901210013 | 36 | 230 | 16.1 | 22.5 | 0.00 | 0.00 | 0.00 | 20 | 1010.6 |
| 20260901205506 | 36 | 214 | 6.4 | 24.1 | 0.00 | 0.00 | 0.00 | 20 | 1010.6 |
| 20260901205006 | 36 | 218 | 9.7 | 24.1 | 0.00 | 0.00 | 0.00 | 21 | 1010.7 |
| 20260901204508 | 35 | 229 | 8.0 | 27.4 | 0.00 | 0.00 | 0.00 | 21 | 1010.8 |
| 20260901204004 | 35 | 202 | 12.9 | 17.7 | 0.00 | 0.00 | 0.00 | 21 | 1010.9 |
| 20260901203503 | 35 | 139 | 8.0 | 22.5 | 0.00 | 0.00 | 0.00 | 21 | 1010.9 |
| 20260901202501 | 35 | 206 | 3.2 | 12.9 | 0.00 | 0.00 | 0.00 | 21 | 1011.0 |
| 20260901202000 | 35 | 194 | 0.0 | 24.1 | 0.00 | 0.00 | 0.00 | 21 | 1011.1 |
| 20260901201501 | 35 | 180 | 12.9 | 24.1 | 0.00 | 0.00 | 0.00 | 21 | 1011.4 |
| 20260901201100 | 35 | 191 | 17.7 | 24.1 | 0.00 | 0.00 | 0.00 | 20 | 1011.2 |
| 20260901200559 | 35 | 197 | 16.1 | 25.7 | 0.00 | 0.00 | 0.00 | 20 | 1011.3 |
| 20260901200058 | 35 | 158 | 9.7 | 29.0 | 0.00 | 0.00 | 0.00 | 22 | 1011.4 |
| 20260901195558 | 35 | 200 | 17.7 | 25.7 | 0.00 | 0.00 | 0.00 | 21 | 1011.6 |
| 20260901195058 | 35 | 154 | 12.9 | 24.1 | 0.00 | 0.00 | 0.00 | 22 | 1011.7 |
| 20260901194601 | 35 | 221 | 8.0 | 19.3 | 0.00 | 0.00 | 0.00 | 23 | 1011.8 |
| 20260901194057 | 35 | 158 | 9.7 | 22.5 | 0.00 | 0.00 | 0.00 | 22 | 1011.9 |
| 20260901193554 | 35 | 188 | 11.3 | 27.4 | 0.00 | 0.00 | 0.00 | 22 | 1011.9 |
| 20260901193054 | 35 | 180 | 14.5 | 25.7 | 0.00 | 0.00 | 0.00 | 22 | 1012.0 |
| 20260901192555 | 35 | 208 | 14.5 | 37.0 | 0.00 | 0.00 | 0.00 | 24 | 1012.0 |
| 20260901192051 | 35 | 159 | 16.1 | 37.0 | 0.00 | 0.00 | 0.00 | 24 | 1012.1 |
| 20260901191551 | 35 | 196 | 14.5 | 27.4 | 0.00 | 0.00 | 0.00 | 25 | 1012.2 |
| 20260901191051 | 35 | 196 | 14.5 | 27.4 | 0.00 | 0.00 | 0.00 | 24 | 1012.2 |
| 20260901190549 | 35 | 196 | 16.1 | 25.7 | 0.00 | 0.00 | 0.00 | 26 | 1012.3 |
| 20260901185548 | 34 | 202 | 16.1 | 25.7 | 0.00 | 0.00 | 0.00 | 25 | 1012.5 |
| 20260901185046 | 34 | 208 | 16.1 | 25.7 | 0.00 | 0.00 | 0.00 | 26 | 1012.5 |
| 20260901184546 | 33 | 227 | 17.7 | 29.0 | 0.00 | 0.00 | 0.00 | 27 | 1012.4 |
| 20260901184047 | 34 | 212 | 16.1 | 29.0 | 0.00 | 0.00 | 0.00 | 26 | 1012.6 |
| 20260901183543 | 33 | 208 | 16.1 | 27.4 | 0.00 | 0.00 | 0.00 | 27 | 1012.5 |
| 20260901183105 | 33 | 214 | 16.1 | 27.4 | 0.00 | 0.00 | 0.00 | 28 | 1012.7 |
| 20260901182542 | 33 | 202 | 12.9 | 25.7 | 0.00 | 0.00 | 0.00 | 28 | 1012.7 |
| 20260901182041 | 33 | 197 | 16.1 | 27.4 | 0.00 | 0.00 | 0.00 | 28 | 1012.7 |
| 20260901181540 | 33 | 208 | 17.7 | 27.4 | 0.00 | 0.00 | 0.00 | 29 | 1012.9 |
| 20260901181037 | 33 | 201 | 17.7 | 29.0 | 0.00 | 0.00 | 0.00 | 30 | 1013.0 |
| 20260901180536 | 33 | 218 | 17.7 | 29.0 | 0.00 | 0.00 | 0.00 | 29 | 1012.9 |
| 20260901175535 | 33 | 177 | 17.7 | 27.4 | 0.00 | 0.00 | 0.00 | 31 | 1013.0 |
| 20260901175034 | 33 | 193 | 16.1 | 25.7 | 0.00 | 0.00 | 0.00 | 30 | 1013.1 |
| 20260901174534 | 33 | 209 | 14.5 | 22.5 | 0.00 | 0.00 | 0.00 | 31 | 1013.1 |
| 20260901174033 | 32 | 198 | 14.5 | 22.5 | 0.00 | 0.00 | 0.00 | 32 | 1013.1 |
| 20260901173531 | 32 | 202 | 11.3 | 27.4 | 0.00 | 0.00 | 0.00 | 33 | 1013.3 |
| 20260901173030 | 32 | 152 | 14.5 | 27.4 | 0.00 | 0.00 | 0.00 | 34 | 1013.2 |
| 20260901172528 | 32 | 196 | 11.3 | 24.1 | 0.00 | 0.00 | 0.00 | 34 | 1013.4 |
| 20260901172027 | 32 | 201 | 14.5 | 24.1 | 0.00 | 0.00 | 0.00 | 34 | 1013.4 |
| 20260901171533 | 32 | 202 | 16.1 | 24.1 | 0.00 | 0.00 | 0.00 | 34 | 1013.5 |
| 20260901171029 | 32 | 181 | 11.3 | 19.3 | 0.00 | 0.00 | 0.00 | 36 | 1013.5 |
| 20260901170523 | 31 | 191 | 8.0 | 19.3 | 0.00 | 0.00 | 0.00 | 36 | 1013.5 |
| 20260901165522 | 31 | 210 | 12.9 | 19.3 | 0.00 | 0.00 | 0.00 | 37 | 1013.6 |
| 20260901165021 | 31 | 208 | 11.3 | 19.3 | 0.00 | 0.00 | 0.00 | 38 | 1013.7 |
| 20260901164521 | 31 | 187 | 11.3 | 22.5 | 0.00 | 0.00 | 0.00 | 38 | 1013.7 |
| 20260901164019 | 30 | 122 | 8.0 | 22.5 | 0.00 | 0.00 | 0.00 | 39 | 1013.7 |
| 20260901163519 | 30 | 201 | 9.7 | 19.3 | 0.00 | 0.00 | 0.00 | 38 | 1013.8 |
| 20260901163022 | 30 | 191 | 9.7 | 22.5 | 0.00 | 0.00 | 0.00 | 40 | 1013.7 |
| 20260901162518 | 30 | 193 | 11.3 | 22.5 | 0.00 | 0.00 | 0.00 | 40 | 1013.7 |
| 20260901162020 | 30 | 199 | 11.3 | 19.3 | 0.00 | 0.00 | 0.00 | 40 | 1014.0 |
| 20260901161516 | 30 | 206 | 9.7 | 19.3 | 0.00 | 0.00 | 0.00 | 41 | 1013.8 |
| 20260901161016 | 30 | 169 | 8.0 | 17.7 | 0.00 | 0.00 | 0.00 | 42 | 1013.7 |
| 20260901160517 | 29 | 171 | 8.0 | 16.1 | 0.00 | 0.00 | 0.00 | 42 | 1013.7 |
| 20260901155526 | 29 | 155 | 8.0 | 19.3 | 0.00 | 0.00 | 0.00 | 44 | 1013.6 |
| 20260901155025 | 28 | 213 | 11.3 | 17.7 | 0.00 | 0.00 | 0.00 | 44 | 1013.7 |
| 20260901154524 | 28 | 209 | 12.9 | 17.7 | 0.00 | 0.00 | 0.00 | 44 | 1013.7 |
| 20260901154025 | 28 | 191 | 9.7 | 17.7 | 0.00 | 0.00 | 0.00 | 45 | 1013.8 |
| 20260901153523 | 28 | 137 | 9.7 | 17.7 | 0.00 | 0.00 | 0.00 | 45 | 1013.8 |
| 20260901153027 | 28 | 204 | 8.0 | 22.5 | 0.00 | 0.00 | 0.00 | 46 | 1013.7 |
| 20260901152525 | 28 | 203 | 12.9 | 22.5 | 0.00 | 0.00 | 0.00 | 46 | 1013.6 |
| 20260901152022 | 28 | 183 | 8.0 | 22.5 | 0.00 | 0.00 | 0.00 | 47 | 1013.7 |
| 20260901151522 | 27 | 178 | 9.7 | 22.5 | 0.00 | 0.00 | 0.00 | 47 | 1013.9 |
| 20260901151022 | 27 | 195 | 11.3 | 22.5 | 0.00 | 0.00 | 0.00 | 47 | 1013.9 |
| 20260901150523 | 27 | 213 | 12.9 | 22.5 | 0.00 | 0.00 | 0.00 | 47 | 1014.0 |
| 20260901145511 | 27 | 158 | 12.9 | 22.5 | 0.00 | 0.00 | 0.00 | 48 | 1013.9 |
| 20260901145010 | 27 | 185 | 9.7 | 22.5 | 0.00 | 0.00 | 0.00 | 49 | 1014.0 |
| 20260901144510 | 27 | 195 | 11.3 | 20.9 | 0.00 | 0.00 | 0.00 | 49 | 1013.9 |
| 20260901144012 | 27 | 210 | 12.9 | 22.5 | 0.00 | 0.00 | 0.00 | 49 | 1014.0 |
| 20260901143514 | 27 | 199 | 9.7 | 22.5 | 0.00 | 0.00 | 0.00 | 49 | 1014.0 |
| 20260901143012 | 26 | 196 | 9.7 | 25.7 | 0.00 | 0.00 | 0.00 | 50 | 1014.0 |
| 20260901142509 | 26 | 191 | 14.5 | 24.1 | 0.00 | 0.00 | 0.00 | 50 | 1014.0 |